Weather History for Oceana NAS, VA

Change the Weather History Date:

Tuesday, June 17, 2014

  Actual Average Record
Temperature  
Mean Temperature 82 °F -  
Max Temperature 91 °F 80 °F 91 °F (2000)
Min Temperature 73 °F 64 °F 57 °F (2006)
Cooling Degree Days 16    
Growing Degree Days 32 (Base 50)    
Moisture  
Dew Point 71 °F    
Average Humidity 72    
Maximum Humidity 87    
Minimum Humidity 54    
Precipitation  
Precipitation 0.00 in - - ()
Sea Level Pressure  
Sea Level Pressure 30.08 in    
Wind  
Wind Speed 9 mph (SSW)    
Max Wind Speed 13 mph    
Max Gust Speed -    
Visibility 10 miles    
Events      
Averages and records for this station are not official NWS values.
T = Trace of Precipitation, MM = Missing Value Source: NWS Daily Summary

Daily Weather History Graph

Daily Weather History Graph

Search for Another Location

Airport:

Trip Planner

Search our weather history database for the weather conditions in past years. The results will help you decide how hot, cold, wet, or windy it might be!

Date:

Astronomy

Jun. 17, 2014 Rise Set
Actual Time 5:44 AM EDT 8:25 PM EDT
Civil Twilight 5:13 AM EDT 8:56 PM EDT
Nautical Twilight 4:35 AM EDT 9:34 PM EDT
Astronomical Twilight 3:52 AM EDT 10:17 PM EDT
Moon No Moon Rise 10:49 AM EDT (6/17)
Length of Visible Light 15h 42m
Length of Day
14h 40m
Waning Gibbous, 73% of the Moon is Illuminated
Jun 17
Waning Gibbous
Jun 19
Last Quarter
Jun 27
New
Jul 5
First Quarter
Jul 12
Full

Hourly Weather History & Observations

Time (EDT) Temp. Heat Index Dew Point Humidity Pressure Visibility Wind Dir Wind Speed Gust Speed Precip Events Conditions
12:56 AM 78.1 °F - 73.0 °F 84% 30.09 in 10.0 mi SSW 9.2 mph - N/A   Partly Cloudy
1:56 AM 77.0 °F - 72.0 °F 84% 30.09 in 10.0 mi SSW 10.4 mph - N/A   Scattered Clouds
2:56 AM 75.0 °F - 71.1 °F 87% 30.09 in 10.0 mi SW 8.1 mph - N/A   Partly Cloudy
3:56 AM 75.0 °F - 70.0 °F 84% 30.07 in 10.0 mi SW 8.1 mph - N/A   Partly Cloudy
4:56 AM 73.9 °F - 69.1 °F 85% 30.08 in 10.0 mi WSW 8.1 mph - N/A   Partly Cloudy
5:56 AM 73.0 °F - 69.1 °F 87% 30.10 in 9.0 mi SW 6.9 mph - N/A   Scattered Clouds
6:56 AM 73.9 °F - 69.1 °F 85% 30.11 in 9.0 mi SW 8.1 mph - N/A   Partly Cloudy
7:56 AM 78.1 °F - 70.0 °F 76% 30.12 in 10.0 mi WSW 10.4 mph - N/A   Partly Cloudy
8:56 AM 81.0 °F 84.4 °F 70.0 °F 69% 30.12 in 10.0 mi WSW 11.5 mph - N/A   Partly Cloudy
9:56 AM 84.0 °F 89.0 °F 71.1 °F 65% 30.12 in 10.0 mi WNW 6.9 mph - N/A   Clear
10:56 AM 87.1 °F 92.8 °F 71.1 °F 59% 30.11 in 10.0 mi WNW 3.5 mph - N/A   Partly Cloudy
11:56 AM 90.0 °F 96.4 °F 71.1 °F 54% 30.11 in 10.0 mi North - - N/A   Partly Cloudy
12:56 PM 89.1 °F 98.0 °F 73.9 °F 61% 30.10 in 10.0 mi ESE 9.2 mph - N/A   Scattered Clouds
1:56 PM 88.0 °F 95.6 °F 73.0 °F 61% 30.09 in 10.0 mi East 10.4 mph - N/A   Scattered Clouds
2:56 PM 89.1 °F 98.0 °F 73.9 °F 61% 30.07 in 10.0 mi East 11.5 mph - N/A   Scattered Clouds
3:56 PM 86.0 °F 93.8 °F 73.9 °F 67% 30.06 in 10.0 mi East 10.4 mph - N/A   Scattered Clouds
4:56 PM 84.0 °F 91.2 °F 73.9 °F 72% 30.06 in 10.0 mi SSE 9.2 mph - N/A   Scattered Clouds
5:56 PM 82.0 °F 84.5 °F 66.9 °F 60% 30.05 in 10.0 mi SSE 11.5 mph - N/A   Mostly Cloudy
6:56 PM 82.0 °F 83.8 °F 64.9 °F 56% 30.04 in 10.0 mi South 5.8 mph - N/A   Mostly Cloudy
7:56 PM 82.0 °F 85.5 °F 69.1 °F 65% 30.05 in 10.0 mi South 4.6 mph - N/A   Mostly Cloudy
8:56 PM 82.0 °F 86.3 °F 71.1 °F 69% 30.04 in 10.0 mi South 6.9 mph - N/A   Mostly Cloudy
9:56 PM 81.0 °F 85.2 °F 72.0 °F 74% 30.05 in 10.0 mi SSW 8.1 mph - N/A   Scattered Clouds
10:56 PM 81.0 °F 85.8 °F 73.0 °F 77% 30.05 in 10.0 mi SW 12.7 mph - N/A   Scattered Clouds
11:56 PM 81.0 °F 86.2 °F 73.9 °F 79% 30.04 in 10.0 mi SW 12.7 mph - N/A   Partly Cloudy